Location: Chuathbaluk
(61.5726°N, 159.2454°W)
Time: 14:28:59
(UTC+00:00)

DELFI C3 - Pass Details

Date: 21 January 2021
Orbit: 531 x 550 km, 97.4° (Epoch: 04 March)

Event Time Altitude Azimuth Distance (km) Brightness Sun altitude
Exits shadow 07:41:13 11° 301° (WNW) 1,762 ? -37.2°
Drops below altitude 10° 07:41:43 10° 308° (NW) 1,851 ? -37.3°
Sets 07:44:52 0° 335° (NNW) 2,742 ? -37.6°
